Location: Prairie Dale
(45.6972°N, 104.5033°W)
Time: 15:06:35
(UTC+00:00)

Envisat - Pass Details

Date: 24 January 2022
Orbit: 764 x 765 km, 98.2° (Epoch: 15 May)

Event Time Altitude Azimuth Distance (km) Brightness Sun altitude
Rises 12:13:03 0° 11° (N) 3,242 6.3 -23.4°
Reaches altitude 10° 12:15:22 10° 9° (N) 2,311 5.5 -23.0°
Maximum altitude 12:20:25 68° 287° (WNW) 823 2.9 -22.1°
Drops below altitude 10° 12:25:27 10° 205° (SSW) 2,296 5.3 -21.2°
Sets 12:27:45 0° 203° (SSW) 3,218 6.1 -20.8°
